Location: downtown San Diego
(32.7310°N, 117.1990°W)
Time: 03:32:30
(UTC-07:00)

CZ-3 Stage 3 - Pass Details

Date: 14 June 2018
Orbit: 302 x 27457 km, 30.2° (Epoch: 20 June)

Event Time Altitude Azimuth Distance (km) Brightness Sun altitude
Rises 21:28:46 0° 255° (WSW) 2,341 6.0 -16.3°
Reaches altitude 10° 21:30:02 10° 252° (WSW) 1,737 5.2 -16.5°
Maximum altitude 21:33:19 68° 169° (SSE) 981 3.3 -17.0°
Drops below altitude 10° 21:47:46 10° 89° (E) 7,073 7.5 -19.2°
Sets 22:01:34 0° 89° (E) 12,011 8.7 -21.2°
